Location: Cuzcurrita-R�o Tir�n
(42.5415°N, 2.9642°W)
Time: 15:39:47
(UTC+00:00)

Cosmos 2369 Rocket - Pass Details

Date: 27 February 2020
Orbit: 827 x 854 km, 71.0° (Epoch: 07 April)

Event Time Altitude Azimuth Distance (km) Brightness Sun altitude
Rises 18:51:55 0° 231° (SW) 3,382 6.3 -10.6°
Reaches altitude 10° 18:54:36 10° 241° (WSW) 2,456 5.7 -11.1°
Maximum altitude 18:59:38 33° 304° (NW) 1,404 4.0 -12.1°
Drops below altitude 10° 19:04:44 10° 8° (N) 2,484 4.6 -13.0°
Sets 19:07:28 0° 18° (NNE) 3,427 5.2 -13.5°
